Wind_Speed
3 2 4 4 5 7 9 11 11 11 13 12 9 6 7 6 7 14 12 13 14 10 7 7 7 7 9 9 9 8 6 6 5 5 4 0 1 1 2 1 6 12 9 12 24 23 21 24 24 26 28 27 28 27 27 29 28 25 27 29 26 23 23 24 21 20 23 21 18 17 15 16 16 18 20 19 19 17 16 18 18 16 16 13 13 14
4 4 5 7 9 10 11 11 12 13 14 12 9 7 8 7 5 16 17 16 14 8 6 7 7 7 9 10 11 10 8 8 7 7 7 4 3 3 1 2 1 6 9 11 19 21 21 24 24 25 26 27 29 28 26 29 28 25 27 30 27 25 24 25 23 22 24 21 18 19 16 17 18 16 18 19 19 18 17 18 18 17 18 17 15 16
5 4 7 9 10 11 11 11 11 12 13 9 6 6 6 3 7 12 14 17 12 6 7 9 6 6 7 9 11 11 9 8 8 8 8 7 6 5 2 1 3 2 6 10 14 18 21 24 26 24 23 26 30 28 26 28 27 25 28 28 27 27 25 25 24 22 23 19 17 19 17 17 18 16 17 20 19 18 17 18 17 17 18 18 16 16
4 6 9 10 9 10 11 11 9 9 9 6 5 5 5 3 7 7 10 14 10 7 11 10 5 4 6 6 7 7 5 6 6 5 6 7 6 6 3 2 3 3 3 9 13 14 19 24 25 23 22 26 30 28 27 28 26 25 28 27 26 28 26 25 24 22 21 18 17 19 17 17 18 16 17 19 19 18 18 17 16 16 17 18 17 16
5 8 12 11 11 10 10 10 9 7 5 6 8 7 7 5 6 8 10 12 8 9 13 11 4 1 4 7 6 2 3 3 6 5 5 6 4 4 3 1 3 3 4 7 11 12 15 20 24 24 23 26 29 28 27 29 26 25 28 28 26 27 25 25 24 22 21 19 18 19 19 19 18 16 17 19 20 18 18 18 17 17 17 17 16 16
8 8 12 13 12 11 9 8 8 7 5 5 9 9 10 7 7 11 11 10 5 6 11 11 4 2 3 7 8 6 3 5 7 7 7 6 5 5 5 3 4 4 5 5 7 12 14 18 24 24 23 25 28 28 27 29 26 25 29 29 26 26 24 24 24 22 21 20 18 20 22 22 20 19 20 21 21 20 19 18 17 18 17 16 15 16
6 9 9 12 12 10 9 7 8 9 4 3 6 8 12 12 6 12 13 10 5 6 12 11 5 1 2 5 9 11 10 9 8 9 9 7 7 6 5 5 4 5 6 7 6 10 14 19 23 23 23 24 27 29 28 28 26 25 30 29 26 26 25 24 24 22 22 20 18 21 23 22 21 21 21 22 21 20 19 18 16 17 17 16 15 15
7 11 10 9 11 9 8 6 7 7 3 3 8 8 10 12 10 8 11 7 3 6 11 10 6 5 3 5 9 13 13 10 9 10 9 8 8 7 6 7 6 6 6 4 5 6 12 20 24 23 24 25 26 29 29 27 27 27 31 30 26 27 26 24 24 22 23 21 20 21 21 21 21 20 21 21 21 20 18 18 16 16 17 17 16 15
9 11 10 9 8 7 6 7 7 6 4 5 10 10 7 8 12 9 6 4 2 5 5 7 6 5 3 4 7 11 12 12 13 13 11 11 10 9 8 8 8 7 6 4 2 5 5 15 26 26 25 26 26 29 30 28 28 29 32 31 26 27 26 25 24 23 24 22 20 20 20 21 20 19 19 19 20 19 18 19 17 16 17 16 17 16
6 8 9 9 6 5 7 9 11 9 6 6 9 11 7 7 11 8 4 4 3 4 5 9 8 4 2 5 7 9 10 12 14 13 13 13 11 11 10 8 8 8 5 5 5 5 8 7 23 29 26 26 27 29 30 28 29 30 32 31 28 27 25 25 25 23 24 24 21 20 20 21 19 18 19 17 19 20 18 20 19 18 17 15 16 17
7 7 9 7 6 6 4 3 6 6 5 4 6 8 8 6 6 4 2 5 1 2 3 8 8 7 3 6 8 7 8 11 12 11 11 13 12 13 12 8 8 8 6 5 5 5 8 12 14 26 28 25 25 30 31 28 29 31 32 31 29 29 25 24 25 24 24 25 23 20 20 20 18 18 19 17 19 21 20 21 20 18 18 16 16 17
11 7 6 6 6 3 2 3 1 5 8 5 4 4 4 5 4 3 1 5 1 3 3 5 4 7 2 5 9 7 7 12 12 12 14 15 14 14 12 9 9 9 7 6 4 5 6 10 11 15 26 27 25 29 30 28 30 32 32 31 28 29 27 24 26 26 23 25 24 21 19 19 18 18 20 17 18 20 19 20 20 19 18 17 16 16
8 8 8 8 5 3 4 1 1 5 8 5 4 3 3 3 2 0 2 3 3 3 3 6 2 4 2 2 11 11 10 13 11 10 13 16 16 14 12 11 9 9 8 7 6 5 5 5 8 7 13 19 21 30 31 27 30 32 32 32 29 29 28 25 27 28 24 24 25 23 20 19 18 18 19 18 18 19 19 19 19 19 19 18 16 17
5 8 7 6 6 5 3 2 3 3 5 5 4 3 4 2 1 1 1 2 2 3 6 9 1 3 1 3 8 10 10 12 10 9 11 13 14 13 11 10 9 8 9 7 7 7 5 6 5 3 6 8 10 22 33 29 29 32 31 33 30 29 28 25 28 29 26 25 25 24 21 19 19 19 19 19 19 19 19 18 17 18 20 18 17 17
4 6 3 2 4 8 6 6 6 3 2 5 4 3 4 3 3 2 1 2 1 4 8 8 1 3 3 2 5 9 9 9 9 8 9 10 10 10 10 9 9 8 8 8 7 8 8 8 8 8 14 17 14 14 25 30 31 31 32 33 31 29 27 25 27 28 27 26 25 25 23 20 21 19 18 19 19 19 20 18 17 17 18 18 17 17
5 3 3 2 5 10 9 8 7 2 2 4 4 3 4 4 4 3 2 5 5 4 3 2 2 3 2 4 5 5 7 7 8 8 8 8 8 9 8 8 10 8 8 9 8 8 12 15 14 11 16 24 22 16 17 26 32 32 33 34 32 30 28 25 26 27 27 26 24 24 24 22 22 20 18 19 19 19 19 19 18 17 17 17 16 16
3 3 3 3 7 7 10 8 7 3 1 3 4 4 5 4 2 3 3 5 6 4 1 2 5 3 2 4 7 6 5 7 10 9 8 8 7 7 6 6 8 8 7 8 9 8 11 14 16 17 19 24 26 20 14 16 28 33 34 34 32 30 29 26 26 26 26 25 24 24 24 22 22 22 20 19 19 19 18 18 18 16 15 16 15 15
3 5 8 7 11 9 9 9 7 7 5 3 4 4 3 4 3 3 1 3 2 3 1 4 10 8 4 2 1 1 1 5 9 10 9 9 9 8 6 6 5 4 4 4 6 6 7 10 13 16 18 16 17 17 10 7 19 28 32 35 33 31 30 27 26 26 25 25 24 24 25 24 23 23 22 20 19 18 18 18 18 17 16 15 15 14
5 4 6 5 10 10 7 7 3 6 7 6 3 2 2 2 3 1 3 0 2 1 1 2 5 5 2 2 7 8 5 5 8 10 10 10 10 9 8 8 7 5 4 3 3 4 3 8 13 15 14 10 11 18 16 10 13 20 26 31 31 30 30 27 25 26 25 25 25 24 25 25 24 23 23 22 20 19 19 19 18 18 17 16 15 15
4 2 4 6 9 6 4 5 1 4 5 7 4 2 2 3 1 1 2 2 2 2 4 3 2 2 2 1 4 9 8 8 9 9 9 10 10 9 8 7 7 4 3 3 2 2 2 2 8 13 16 16 16 22 21 15 16 20 24 28 29 30 30 28 25 24 24 24 24 23 24 25 25 24 24 23 21 20 20 20 19 18 18 17 16 16
3 1 1 7 12 8 1 2 3 4 2 5 4 1 2 1 1 1 1 2 3 1 4 4 1 1 2 3 2 2 3 6 11 10 9 10 10 9 8 7 6 4 4 6 5 3 3 4 6 9 14 15 12 14 16 15 17 19 20 22 26 30 31 29 27 25 23 24 23 22 23 25 26 25 25 24 22 22 21 20 20 19 19 18 18 17
3 2 2 4 7 6 3 2 4 6 5 3 3 2 3 1 2 1 3 4 4 1 4 6 4 1 2 2 2 1 2 4 11 11 9 10 10 9 9 9 7 7 9 9 9 8 5 4 7 9 12 14 10 6 7 9 10 11 9 8 10 14 18 21 24 24 22 24 24 19 19 24 26 25 25 25 23 23 22 22 21 20 20 19 20 20
2 2 3 4 4 6 12 10 6 8 10 7 2 3 4 2 2 2 2 4 4 2 6 6 5 3 1 1 1 4 3 5 9 10 9 9 9 9 10 10 9 10 11 11 11 10 10 9 10 12 14 14 12 12 13 11 11 11 7 7 7 9 12 14 18 20 20 23 24 18 15 18 23 25 24 24 24 23 23 23 22 21 21 21 21 22
3 2 2 5 5 6 14 11 9 8 9 7 3 3 3 2 3 3 2 2 0 2 5 5 4 4 2 1 0 3 6 8 11 10 10 8 7 8 9 9 9 9 11 11 11 11 12 13 12 11 13 12 11 13 15 14 14 14 14 15 13 14 15 15 17 19 18 20 21 19 16 15 18 23 25 24 24 23 22 24 23 22 23 22 22 22
3 3 2 3 4 5 8 4 4 3 3 2 4 5 6 6 1 3 2 2 3 1 4 7 4 2 1 1 1 1 4 10 14 12 10 8 6 7 8 8 8 8 9 10 10 10 11 12 12 12 12 13 12 12 12 13 14 15 13 10 11 15 15 15 16 16 15 17 17 15 15 14 14 18 22 21 22 22 22 23 24 24 24 24 23 23
2 2 2 1 2 3 3 2 1 2 3 3 4 7 10 7 3 3 4 5 4 2 1 6 6 4 4 4 2 2 5 11 14 12 11 10 8 8 8 8 8 8 8 10 10 9 8 9 11 13 14 14 15 13 11 11 12 13 14 12 11 13 13 11 12 12 11 14 17 16 17 16 16 14 17 19 19 20 19 19 21 23 25 26 24 23
1 2 2 3 2 2 4 5 5 3 4 4 4 10 10 3 8 5 4 4 3 1 3 4 10 10 9 5 1 1 2 8 13 12 11 10 9 9 8 8 8 8 8 9 9 9 9 9 10 13 14 15 16 17 14 12 12 12 13 11 7 6 8 8 9 11 9 8 12 15 15 14 16 19 20 20 19 19 18 16 16 17 20 26 28 25
2 2 3 1 2 7 8 8 7 5 7 6 5 11 11 1 6 4 5 5 6 5 5 4 11 13 12 12 9 3 3 6 12 12 10 10 10 9 8 9 9 9 10 10 10 10 10 9 9 12 14 15 17 20 19 17 16 16 16 13 9 4 5 7 8 8 8 7 9 11 11 12 14 20 21 20 18 18 19 18 16 13 12 18 28 30
1 2 4 5 5 9 9 10 8 5 6 8 8 11 11 2 5 4 4 5 6 6 6 8 10 11 11 12 13 10 8 9 13 13 13 12 11 10 9 10 10 11 11 12 11 10 9 8 8 10 13 14 17 18 19 19 17 16 17 15 13 9 4 5 7 6 6 7 9 10 9 10 14 18 19 18 18 18 21 22 19 17 13 11 18 28
1 2 4 7 7 7 9 12 9 6 6 8 9 10 11 9 8 8 6 9 12 10 11 12 11 8 4 4 9 11 9 10 12 12 13 13 12 12 11 11 11 11 12 12 11 10 9 8 9 10 13 15 16 15 15 17 17 16 17 16 15 15 12 7 6 6 7 8 7 6 6 7 12 17 17 18 18 18 21 23 21 21 21 15 12 17
2 3 5 5 4 7 11 11 6 5 8 8 9 10 9 9 9 8 6 12 14 10 11 14 12 8 2 3 5 11 10 10 11 11 12 12 13 13 12 11 11 10 11 10 9 9 9 9 10 12 14 17 16 14 14 16 16 17 17 16 17 17 15 12 10 8 8 8 7 7 7 8 9 12 14 16 16 15 15 17 18 20 24 24 17 12
2 3 5 4 2 4 9 7 3 2 8 7 8 11 7 3 4 4 4 8 11 11 11 11 8 6 3 3 3 10 13 13 13 12 11 10 12 13 12 10 9 8 9 9 8 8 8 8 10 12 14 16 18 17 16 16 16 16 16 16 16 16 15 14 13 11 10 9 8 8 7 7 7 9 10 12 13 13 12 14 16 17 21 26 25 19
2 2 3 4 1 4 7 9 4 3 4 4 4 9 8 1 1 4 6 6 12 13 9 6 6 7 7 6 7 10 12 13 12 11 10 10 11 12 11 10 9 8 7 7 7 7 7 8 10 12 13 15 17 19 17 16 16 15 16 17 17 16 17 17 15 12 10 10 10 10 9 7 6 6 7 8 8 9 10 12 13 14 15 20 24 24
2 2 2 3 2 3 6 10 5 2 2 3 3 9 13 6 5 8 9 8 10 11 8 8 8 8 7 7 7 9 11 11 10 9 10 9 9 10 11 10 10 8 7 6 6 6 8 9 11 13 14 15 17 18 17 17 17 15 17 19 18 17 18 17 16 14 12 11 11 10 9 8 7 5 3 4 5 7 7 8 9 10 12 15 20 23
3 2 1 2 1 2 6 7 3 2 1 2 5 8 10 7 9 14 14 12 11 14 14 13 9 8 8 8 6 6 9 11 11 11 11 10 8 9 10 10 10 9 7 5 5 6 9 11 12 14 14 14 16 17 16 16 17 16 17 19 18 17 17 16 16 16 15 15 14 12 10 8 7 7 5 2 1 4 6 7 8 9 11 13 17 20
3 2 1 3 1 1 3 2 1 1 1 4 7 7 7 6 6 11 12 10 10 13 14 13 10 9 11 11 7 6 8 10 10 10 10 10 9 8 8 8 8 9 8 7 7 8 10 10 11 13 13 13 15 18 17 16 16 15 15 16 17 17 16 16 15 15 15 16 15 14 12 11 10 10 7 4 3 3 3 4 5 7 9 12 14 17
3 2 2 2 1 0 1 1 1 1 3 3 3 3 5 4 4 5 7 6 7 10 12 12 11 11 12 12 10 9 9 9 8 7 8 9 9 8 8 8 9 10 11 11 11 10 10 11 10 12 12 12 13 17 18 16 15 16 15 15 15 16 15 15 15 15 15 14 14 14 13 12 12 11 9 7 7 7 7 5 5 6 7 9 11 13
2 2 2 1 1 1 1 1 1 1 1 1 1 3 5 5 5 5 5 4 5 8 10 11 11 12 12 12 12 11 9 8 6 4 6 9 8 8 9 11 13 15 14 14 12 10 10 13 13 13 13 14 13 15 17 17 15 15 16 15 14 15 15 15 13 13 13 12 11 12 12 12 12 12 11 9 8 9 8 7 6 6 6 7 9 10
0 1 1 1 2 3 2 1 1 1 1 2 2 5 7 7 6 6 6 3 3 4 8 8 9 9 10 11 12 10 7 7 5 4 6 10 9 9 9 11 15 17 16 13 12 12 13 14 14 14 15 17 17 15 15 16 15 14 14 14 13 14 15 15 13 13 13 12 10 9 10 10 11 11 10 9 8 7 7 7 7 7 6 6 8 9
2 1 1 1 3 3 2 2 1 1 2 2 3 7 7 7 7 6 5 1 4 5 7 5 6 8 8 8 8 6 6 6 5 5 8 11 11 12 12 12 14 16 15 14 14 14 15 14 15 16 17 18 17 16 15 15 14 13 13 12 12 13 14 14 13 12 13 12 9 9 10 11 9 8 8 7 7 7 5 6 6 6 7 7 6 7
2 2 2 2 3 3 3 2 0 1 1 2 5 7 7 6 5 5 4 4 3 6 8 8 7 7 8 9 7 5 6 6 7 8 10 11 10 11 14 16 16 15 15 15 15 15 15 15 16 16 16 16 15 14 15 15 13 12 11 11 11 12 12 12 12 11 11 11 10 10 11 12 10 8 6 5 7 7 5 5 6 6 6 6 6 6
2 1 3 3 3 3 3 1 0 0 1 3 5 5 6 4 2 2 4 3 2 6 8 9 9 5 7 10 9 7 8 9 11 11 10 9 8 10 14 16 15 14 15 17 17 16 15 16 16 15 15 15 14 13 14 14 12 11 11 11 11 12 12 11 11 11 10 9 9 11 12 11 11 11 10 8 8 8 6 5 6 7 6 5 5 6
1 0 1 2 2 2 2 1 1 1 0 3 4 3 4 3 3 4 1 2 4 6 7 8 7 6 6 9 9 9 11 10 10 10 9 8 8 11 14 15 13 13 14 16 17 16 15 16 15 14 14 14 14 13 13 13 12 12 11 12 12 11 12 13 13 13 10 8 9 12 13 12 11 13 14 13 11 8 7 7 8 8 8 6 6 8
0 1 1 1 1 0 1 1 2 2 2 5 4 2 1 2 3 3 3 3 4 5 5 5 5 5 5 7 9 9 10 9 8 8 8 8 8 11 14 13 13 12 12 14 16 14 13 13 13 13 14 14 13 13 13 13 13 13 12 12 12 12 13 14 14 13 12 11 12 13 13 13 13 14 15 16 14 10 9 10 10 10 9 8 8 9
1 2 2 1 2 0 2 3 3 2 3 6 5 4 4 4 3 4 5 3 3 4 5 5 5 5 5 7 8 7 7 9 8 7 7 8 8 10 11 13 13 12 11 12 12 11 10 10 11 12 13 13 12 12 13 13 14 14 13 13 13 13 14 15 14 14 14 14 14 14 14 14 14 14 15 16 15 12 13 14 12 11 10 8 7 8
2 3 3 2 2 2 2 4 4 4 5 7 6 4 5 5 4 5 5 4 4 5 5 5 5 6 6 6 7 6 7 8 8 7 7 7 6 8 12 14 14 12 9 8 8 7 7 8 9 10 11 11 11 11 11 12 12 13 14 14 13 13 15 15 15 14 14 14 15 15 15 15 15 15 15 15 15 14 15 16 14 12 11 10 9 9
1 2 1 1 1 2 1 3 5 6 6 8 7 5 5 5 4 5 5 5 5 6 6 6 5 5 6 7 7 7 7 8 8 7 6 6 6 8 11 12 11 9 7 6 5 6 7 7 8 9 9 9 9 10 10 10 10 11 12 13 12 12 14 14 14 14 15 15 15 16 16 15 16 17 17 17 16 14 13 13 12 11 11 11 12 10
2 3 2 1 1 1 1 1 2 0 4 7 6 5 5 5 5 6 6 6 6 7 6 6 5 5 5 6 7 7 6 6 7 6 5 6 6 6 8 9 9 8 7 6 6 7 7 8 8 9 9 9 9 9 8 8 8 9 11 11 11 12 13 13 14 15 15 16 17 17 17 17 17 17 17 17 17 15 13 12 12 11 10 10 10 9
2 2 2 2 3 3 1 5 8 5 1 4 5 4 5 5 5 6 7 7 7 7 6 6 6 6 5 5 5 6 5 5 6 7 6 5 5 7 8 9 8 8 9 8 8 9 8 8 9 9 9 9 9 10 10 10 9 9 11 11 12 12 12 13 13 14 16 17 18 19 19 18 18 17 18 18 18 17 15 14 15 15 16 15 14 13
1 1 1 2 2 2 2 3 4 2 1 3 5 4 3 5 5 6 7 8 8 8 7 7 5 4 5 6 5 4 4 5 5 6 6 3 4 7 9 9 9 9 9 9 8 8 7 7 9 9 8 10 11 12 13 13 13 12 12 12 13 13 13 14 14 14 14 15 16 18 20 21 21 20 20 19 19 19 18 18 16 15 16 17 17 16
2 1 1 2 1 1 1 3 3 2 1 2 5 6 5 4 3 2 4 7 9 9 8 8 7 5 4 5 5 5 4 6 7 6 6 5 6 7 8 9 9 9 8 8 7 7 7 7 8 9 11 12 12 13 14 14 14 14 13 13 14 13 13 14 16 15 13 12 13 15 18 21 22 22 22 21 20 18 18 18 16 14 14 14 15 15
Wind_Direction
172 182 181 201 217 218 219 224 239 255 259 268 282 271 256 253 170 153 155 168 164 143 150 166 155 156 153 161 180 182 169 160 151 142 146 124 58 237 281 279 158 162 182 158 152 166 166 159 158 150 151 154 155 157 155 156 159 162 164 161 160 164 163 163 163 160 161 161 161 166 168 165 160 161 163 158 157 168 172 163 162 165 165 161 155 154
187 201 211 207 212 224 228 223 228 249 264 272 285 289 286 289 156 143 147 159 162 138 153 169 149 160 162 163 175 170 163 169 168 161 165 168 173 217 274 337 232 171 176 159 153 167 164 156 156 153 154 154 153 156 155 156 159 162 163 160 161 165 165 166 165 165 168 168 166 167 170 166 161 166 169 164 163 170 172 166 167 170 170 169 166 164
195 219 227 217 213 221 233 238 228 235 253 266 279 279 283 300 115 131 143 152 158 133 145 165 155 163 162 160 170 168 169 174 173 166 167 174 184 210 207 127 278 251 183 165 158 169 163 153 156 155 153 152 153 156 156 158 160 160 160 160 164 167 168 169 167 169 172 170 167 167 170 170 165 166 168 166 166 169 169 166 170 175 175 175 172 168
187 206 224 229 226 219 227 243 244 241 244 246 257 265 268 228 130 134 151 152 157 140 143 152 143 145 148 151 165 165 162 161 161 143 151 180 191 202 200 167 220 263 228 178 166 169 160 153 157 158 154 150 153 157 157 161 163 164 164 164 168 169 170 172 169 172 174 167 168 172 172 172 169 170 170 166 164 168 169 167 173 179 177 178 178 173
220 197 203 222 235 230 223 229 237 248 248 237 239 242 260 250 136 140 157 149 151 148 140 127 91 83 156 160 161 90 36 133 152 137 147 180 181 179 184 192 220 247 262 198 172 169 161 154 157 161 159 153 156 160 160 166 169 169 169 170 171 171 172 175 173 175 175 171 175 175 168 166 168 169 168 164 162 169 171 170 177 183 180 180 182 178
241 214 192 202 226 235 232 226 221 230 240 239 234 232 255 265 126 146 161 139 137 167 148 127 95 285 194 173 158 123 140 186 172 172 181 187 181 180 183 203 236 241 260 249 188 172 163 154 156 164 166 158 159 164 165 169 173 172 171 173 176 174 174 178 177 176 177 178 177 169 160 159 160 160 166 167 166 172 174 176 182 184 180 179 181 177
240 243 212 194 207 223 235 237 222 223 227 249 243 224 244 259 205 172 168 151 167 181 165 153 132 164 217 199 163 144 164 193 196 190 190 192 190 192 189 191 221 235 246 274 248 187 165 155 159 166 171 166 162 167 169 171 175 176 172 174 179 177 178 181 180 178 180 180 176 169 164 166 166 165 170 170 171 175 177 179 186 183 178 180 184 179
202 235 240 206 199 207 223 241 234 222 199 235 256 234 223 251 258 203 169 171 187 145 165 175 131 122 200 209 169 151 155 177 200 200 192 195 193 192 198 192 196 215 221 260 283 217 171 158 163 169 172 172 167 168 171 174 177 178 175 176 178 178 179 183 182 181 183 182 178 174 171 172 175 176 175 172 175 180 180 183 186 182 180 184 187 185
191 214 239 227 211 200 201 223 229 224 222 239 258 259 223 226 256 243 174 173 185 128 174 196 126 104 182 174 160 159 158 172 192 194 189 193 193 189 200 202 191 196 204 202 239 257 215 165 165 170 174 174 171 170 173 177 179 178 177 178 178 178 181 183 182 182 184 185 180 178 176 173 177 182 179 178 182 182 179 182 183 182 185 186 188 191
202 198 221 233 229 205 201 213 213 210 223 239 255 278 278 225 237 241 168 146 188 164 183 195 162 121 163 164 160 170 174 180 187 187 187 188 188 188 193 197 186 182 194 199 199 241 280 216 170 169 174 177 173 173 176 179 179 176 175 179 181 181 181 182 184 183 185 186 180 179 179 174 176 183 180 181 185 183 180 179 179 184 189 187 190 194
265 212 207 232 237 215 204 202 204 219 250 253 240 270 294 276 261 261 142 98 122 218 203 208 177 128 148 183 174 185 186 179 176 178 184 182 184 190 191 185 180 181 180 188 193 203 265 273 201 171 172 180 177 174 177 178 177 175 174 178 182 184 184 183 184 183 185 187 183 179 180 177 178 177 177 179 179 180 182 180 179 184 189 190 191 191
269 241 207 225 235 217 60 56 161 247 263 269 240 242 282 297 301 278 167 91 120 247 237 237 172 109 111 186 181 201 190 172 172 174 178 179 181 188 188 178 174 181 173 169 181 186 223 267 252 187 174 182 181 173 177 178 173 174 175 177 181 184 186 186 184 183 185 188 187 184 182 183 181 173 175 180 173 172 178 179 181 183 186 192 191 189
261 252 212 191 184 107 63 53 252 252 247 246 239 212 218 276 339 103 143 116 198 237 255 249 176 99 4 132 165 182 176 171 174 172 172 173 178 182 182 174 169 174 168 162 166 173 190 219 259 244 183 185 186 173 174 177 171 173 176 177 179 183 187 188 185 185 186 187 189 188 183 184 185 179 180 184 176 172 175 176 182 185 186 192 193 192
241 253 226 160 138 136 132 192 218 234 224 220 227 181 180 230 59 115 115 90 195 233 255 259 235 109 271 99 141 157 156 164 164 166 170 169 172 174 172 165 160 169 166 163 169 167 182 193 205 222 181 215 226 181 174 175 171 172 175 178 180 182 187 189 186 186 187 188 190 189 185 185 188 185 184 187 183 180 179 178 184 188 188 193 196 197
234 243 217 87 123 150 172 222 229 241 215 214 234 208 201 212 149 153 134 106 211 240 241 247 212 143 186 124 126 127 126 141 143 150 162 163 167 164 164 159 157 170 164 163 177 162 168 200 195 166 177 207 238 212 183 175 171 173 174 178 181 182 186 189 187 188 189 190 191 191 189 188 189 189 188 190 190 189 187 185 188 191 191 197 199 201
273 242 140 221 215 166 171 222 236 278 301 231 237 240 229 212 140 149 196 180 196 222 241 229 110 129 130 38 27 70 92 110 120 120 126 142 154 149 157 158 155 171 172 170 183 162 162 190 200 187 188 199 211 227 209 180 171 173 175 178 182 183 186 188 188 190 191 192 192 193 194 192 192 193 192 191 192 195 193 191 193 195 196 201 200 202
298 305 347 293 257 200 174 201 215 183 200 240 234 233 240 243 166 157 231 226 198 189 211 99 103 105 91 41 3 358 36 86 107 107 100 111 121 126 139 142 146 164 170 170 178 168 160 173 185 187 192 200 205 220 235 191 173 174 176 177 179 182 184 188 190 192 193 195 195 196 196 196 195 196 197 194 193 197 198 196 197 199 200 202 200 201
11 315 321 333 308 279 186 186 222 204 198 233 224 213 242 281 260 157 145 274 226 170 167 144 143 147 151 136 110 259 104 92 108 116 111 110 106 102 98 90 101 122 119 132 152 157 158 165 180 187 187 197 207 214 234 212 179 175 176 177 177 180 183 186 190 192 194 197 199 199 199 199 200 200 201 198 197 200 200 200 200 201 203 202 201 202
358 319 305 315 297 279 173 147 252 246 249 259 240 200 184 247 265 166 123 280 268 165 107 104 146 146 114 146 160 157 151 129 123 119 113 111 108 102 89 79 71 58 51 66 102 115 133 172 187 190 182 176 193 201 202 201 184 170 171 176 176 177 182 185 188 191 193 196 199 201 202 202 203 203 204 202 201 203 203 205 205 203 204 202 201 205
337 325 289 303 307 299 125 108 216 239 257 255 256 287 219 187 169 174 146 171 241 189 119 73 333 308 352 320 166 144 136 134 123 102 90 87 86 92 92 88 83 68 55 62 93 121 85 149 178 183 186 180 184 195 193 188 184 170 165 172 175 175 179 182 185 188 192 195 198 202 204 205 205 205 205 203 204 206 206 210 211 207 207 205 201 206
345 40 270 318 328 330 56 123 205 218 223 222 225 311 279 224 135 250 277 209 234 204 126 123 128 255 246 290 311 93 103 111 106 93 83 79 69 69 72 74 89 95 79 65 62 95 124 158 158 156 167 163 164 190 187 173 175 170 164 169 173 176 180 184 184 186 191 193 195 201 206 207 207 208 209 206 206 209 208 210 213 211 211 210 205 206
23 340 321 328 330 322 309 277 239 264 281 232 174 150 260 273 133 242 299 275 254 199 136 135 122 127 193 203 204 165 1 58 95 98 92 85 73 65 58 50 52 63 66 60 49 47 65 126 129 112 118 126 122 133 133 113 105 108 112 112 122 154 180 190 189 188 191 190 190 199 209 210 210 210 211 210 210 213 210 208 213 212 212 215 211 206
30 286 312 322 313 309 303 288 237 254 279 278 236 177 220 241 151 183 270 279 296 46 98 107 110 101 52 343 152 145 127 81 90 94 89 84 76 70 62 50 43 50 60 59 54 49 44 58 81 84 90 104 105 94 98 108 104 103 137 160 131 148 188 206 203 200 198 190 190 196 201 205 210 211 213 213 213 216 213 209 212 212 212 217 215 210
343 297 357 331 308 306 299 277 198 213 262 277 281 237 231 236 148 140 172 206 308 82 108 96 90 103 101 285 246 154 161 131 107 96 91 87 78 74 67 57 50 49 55 58 56 56 51 51 59 65 73 86 93 95 104 123 137 146 176 194 185 179 195 213 218 217 208 193 195 204 200 197 205 208 212 216 216 218 217 211 212 215 214 216 216 213
335 322 2 336 321 332 319 308 156 203 280 314 306 291 277 273 248 86 65 83 70 80 128 114 117 134 121 314 51 150 163 122 108 103 100 91 80 78 71 62 60 54 56 60 58 57 55 53 52 53 63 73 78 90 106 121 136 142 151 172 181 181 192 209 216 219 216 205 208 219 215 213 219 209 205 212 218 220 222 218 216 217 216 216 218 217
297 299 309 358 355 338 317 309 266 291 313 311 301 285 270 280 351 59 73 65 57 330 61 112 142 151 78 26 1 170 138 111 105 104 102 97 88 81 73 63 61 59 60 64 63 59 58 59 59 58 63 67 66 71 94 119 128 126 129 147 167 173 179 194 203 207 212 213 216 222 223 232 253 240 205 203 214 218 220 221 220 221 218 216 219 220
282 293 287 115 105 272 252 253 262 284 317 312 296 283 278 357 42 52 85 91 137 154 9 105 146 142 125 122 150 242 118 112 110 105 102 102 97 91 86 80 73 66 66 67 65 60 56 56 57 57 60 65 63 60 70 92 100 101 114 133 154 176 183 189 203 210 215 223 222 220 218 226 256 258 228 210 215 219 216 214 217 222 221 217 217 220
1 326 313 103 200 253 267 290 306 332 339 337 325 298 292 67 85 73 92 126 153 117 45 106 138 135 142 151 149 157 196 138 118 115 114 108 102 101 100 98 91 79 70 67 65 62 59 55 51 51 55 61 63 59 59 68 75 80 90 103 119 156 201 197 198 207 216 230 229 223 220 215 237 254 244 225 225 229 223 218 216 220 225 221 215 215
14 308 322 324 281 258 265 286 300 326 335 333 342 334 328 17 102 69 72 115 126 122 129 133 123 123 143 157 153 158 168 138 120 122 121 111 105 102 91 84 83 80 74 68 64 62 62 63 59 56 58 63 65 62 58 59 62 66 71 80 92 90 94 170 175 174 189 216 229 224 225 224 228 242 244 235 234 235 229 224 225 229 235 238 224 215
84 308 327 328 318 314 302 290 297 330 334 324 335 348 359 25 45 30 34 89 99 111 126 117 99 92 107 157 145 136 126 112 113 117 115 109 104 97 87 75 70 71 73 72 69 64 60 59 57 57 63 65 64 66 67 63 59 58 57 59 63 62 62 88 123 141 167 194 213 205 201 221 227 231 235 234 232 230 227 227 233 237 233 234 241 229
56 327 322 340 351 331 300 273 267 316 311 310 327 336 353 18 24 20 54 95 103 103 101 100 96 89 46 274 140 116 101 91 92 94 100 105 100 93 87 79 69 61 61 64 68 68 64 56 45 45 56 58 51 54 67 67 61 57 54 52 53 53 55 68 82 94 118 145 164 167 179 198 209 216 224 229 230 231 232 235 240 242 232 225 230 246
7 320 317 356 18 298 296 284 208 254 287 298 328 328 329 15 14 356 48 96 113 120 108 103 109 120 165 232 120 101 94 87 82 80 85 91 92 92 89 83 76 65 55 49 50 61 65 64 53 45 54 61 52 46 54 64 63 60 58 57 55 54 55 63 70 71 75 90 109 120 143 171 183 192 202 213 226 235 241 241 237 236 231 225 222 230
344 346 337 356 323 273 310 316 280 222 285 292 331 341 336 343 108 346 5 80 120 133 133 129 139 145 148 141 115 105 97 89 86 85 87 89 92 96 98 92 84 72 60 47 39 43 47 61 70 60 58 70 65 50 51 61 62 63 68 65 61 60 61 64 70 72 69 68 76 85 95 116 144 174 192 201 217 233 243 243 237 234 234 229 225 228
352 30 345 334 315 299 324 318 298 122 57 314 358 8 356 5 75 50 31 57 104 118 110 103 115 125 123 114 112 113 103 96 96 91 87 90 94 97 102 104 99 86 72 56 39 33 31 44 66 66 60 71 72 57 52 57 57 64 74 69 62 62 62 62 65 65 64 64 65 69 75 85 99 112 146 195 214 229 245 256 253 248 248 242 237 236
8 30 323 298 287 322 337 337 345 103 102 7 31 19 1 12 67 72 59 58 85 100 94 89 97 107 103 91 83 97 104 104 101 90 80 80 88 96 99 102 107 103 90 69 43 31 29 36 59 65 57 66 77 66 56 55 54 63 76 72 63 60 59 59 59 56 56 59 57 56 60 63 60 59 62 82 206 236 249 263 268 261 259 254 248 245
7 33 329 290 246 358 347 338 278 265 325 39 37 15 3 10 46 69 70 65 79 97 99 99 109 116 112 108 99 90 93 92 89 83 80 76 75 86 94 96 103 107 104 95 71 40 24 29 60 71 57 60 83 81 66 58 54 57 72 79 71 60 55 55 53 49 49 50 47 46 50 52 48 45 40 26 13 3 332 311 303 286 274 266 259 256
23 46 27 325 260 228 300 248 213 339 354 20 32 21 30 33 35 69 90 85 79 95 107 113 119 119 116 118 117 112 106 95 88 92 98 92 78 74 81 86 93 99 97 92 83 61 31 21 49 73 58 47 78 91 79 67 58 51 57 71 72 62 53 52 51 47 45 46 42 40 44 46 46 48 44 28 13 12 8 354 343 333 308 287 274 266
106 123 98 52 323 318 342 315 346 95 79 341 2 32 39 43 45 65 89 77 71 101 116 125 136 137 131 128 129 131 127 111 103 115 117 112 99 79 69 65 73 81 77 69 67 63 43 25 36 63 56 33 51 82 80 70 63 51 47 53 61 58 47 42 42 40 39 42 42 38 41 45 44 46 50 41 25 18 15 8 357 343 323 302 291 280
175 144 92 89 300 326 346 303 318 126 231 282 18 42 33 26 23 50 75 50 12 88 108 126 142 133 124 132 140 141 129 113 114 113 99 98 93 82 72 57 59 68 67 56 49 49 48 35 30 46 47 30 34 52 62 63 62 50 39 39 46 52 44 33 29 27 24 29 38 32 30 39 42 43 46 39 25 16 9 6 6 357 340 316 298 292
261 251 67 232 259 287 298 289 358 89 260 293 42 43 24 8 14 58 99 262 320 28 51 72 110 103 95 112 128 125 120 130 138 112 91 89 82 79 80 66 56 58 58 53 44 41 45 38 26 31 35 30 31 37 42 52 56 45 34 31 34 42 39 25 17 14 10 15 26 19 11 16 26 35 38 22 5 3 356 351 355 356 354 345 326 312
251 198 174 206 241 250 245 254 220 156 254 29 51 31 8 7 32 85 155 233 314 45 43 43 73 98 98 92 90 95 108 113 104 88 84 85 80 75 73 66 57 51 50 52 50 40 35 30 23 23 25 25 28 31 30 36 42 35 27 27 29 29 25 15 7 3 2 8 14 7 356 354 356 5 10 346 332 335 336 340 345 342 343 346 343 334
254 212 186 193 229 253 234 219 65 23 326 70 77 38 15 39 90 160 205 248 35 71 61 46 45 60 92 97 98 102 98 88 84 83 78 75 77 77 71 64 56 46 42 49 52 41 27 24 20 13 13 21 26 24 19 19 24 21 17 24 29 18 4 358 354 350 347 353 1 359 352 346 339 338 339 332 327 324 316 316 332 337 331 328 336 334
215 85 237 194 199 227 221 208 126 182 314 76 90 48 23 76 169 196 221 353 34 72 78 64 46 33 68 94 99 100 101 94 91 98 97 86 84 84 79 69 56 43 38 46 50 39 23 18 11 1 7 20 22 17 12 8 8 9 12 22 23 7 352 350 350 350 350 350 350 347 345 345 339 330 324 320 319 324 324 314 316 322 316 311 323 321
41 83 314 295 325 250 189 230 236 203 74 66 89 113 82 120 171 162 111 37 22 51 71 76 64 38 51 86 93 97 107 106 99 102 109 105 95 90 87 81 68 52 43 47 47 34 18 11 1 357 7 16 14 8 6 4 2 2 6 11 6 355 354 355 353 350 351 349 344 338 336 338 336 328 324 320 311 303 308 314 313 308 305 308 316 311
347 128 171 248 325 357 155 185 232 226 93 86 97 118 113 106 95 94 103 94 56 53 54 62 61 35 41 86 99 98 103 108 105 102 101 98 94 90 90 91 85 69 52 47 41 28 15 5 357 358 6 8 5 1 360 360 359 356 358 359 357 354 355 354 349 345 342 339 337 335 332 329 325 321 322 324 317 302 301 307 307 299 294 296 305 306
183 133 160 204 344 12 108 154 179 175 126 114 116 119 120 119 94 75 82 81 67 70 73 71 65 45 37 62 87 85 80 89 95 94 94 95 97 98 98 94 87 76 62 49 38 29 21 7 357 357 358 358 359 357 353 354 352 349 349 351 351 351 349 349 349 346 341 335 331 329 327 321 318 316 314 317 317 307 298 297 297 294 288 281 286 299
151 98 142 172 55 37 82 163 172 170 148 133 131 126 114 109 101 87 81 74 68 71 74 71 71 66 54 60 79 83 79 86 92 92 96 98 90 89 96 96 92 88 81 65 47 39 28 7 355 353 350 350 354 352 348 348 345 341 341 344 346 344 341 343 344 340 336 332 326 323 320 315 312 311 310 313 315 312 307 305 301 293 286 283 286 289
355 1 359 318 248 216 171 44 18 175 155 134 128 138 138 128 119 109 104 103 94 83 75 66 63 67 67 76 90 92 86 93 101 98 96 103 107 108 109 106 103 101 93 74 54 43 28 9 358 351 342 337 340 342 341 341 339 337 337 339 340 339 336 338 340 338 335 331 326 324 321 316 312 311 314 319 324 324 329 336 333 322 312 308 305 299
350 331 345 338 299 281 328 11 6 360 66 95 102 143 158 149 142 137 132 128 119 110 104 89 68 59 69 87 100 108 109 103 101 104 106 108 119 121 114 105 96 89 82 69 51 38 24 3 343 329 323 331 346 352 351 349 347 343 339 336 334 333 332 333 335 334 332 330 327 327 327 326 325 324 323 325 327 328 327 326 325 324 321 317 314 309
76 287 338 5 322 287 299 351 12 23 7 20 33 56 94 111 129 145 150 148 142 139 137 127 105 77 73 81 79 85 109 117 113 114 118 118 101 94 91 89 86 76 66 57 41 22 360 335 323 323 337 356 2 357 352 350 347 343 338 334 331 329 329 327 323 320 321 323 324 325 327 328 329 327 324 321 318 316 312 309 308 312 314 311 307 303
111 175 93 62 27 265 313 346 15 54 237 348 10 8 14 45 68 116 169 168 159 153 152 149 150 153 138 137 168 192 170 152 157 149 126 103 87 80 78 78 76 68 53 40 23 355 331 331 347 358 1 1 357 350 345 343 340 337 334 331 328 324 322 322 320 314 311 314 318 321 323 324 323 321 320 318 313 307 304 307 311 314 313 309 304 304
Height
753 768 775 776 775 770 765 762 762 759 754 756 759 761 760 758 762 763 766 765 759 777 793 788 792 798 798 799 795 793 793 794 797 797 798 798 797 797 797 796 795 795 795 794 796 800 802 804 806 809 811 814 817 820 822 824 827 830 831 833 836 838 840 841 843 845 846 847 849 850 851 852 853 854 855 856 857 857 858 859 859 859 860 860 861 862
756 774 775 767 765 760 757 755 755 756 754 756 760 762 761 757 758 758 760 762 754 773 792 786 791 798 794 796 794 793 796 797 797 797 799 800 799 799 798 798 797 795 793 793 796 799 801 804 806 809 811 813 816 819 822 824 826 829 830 833 835 837 839 841 842 844 846 847 848 850 851 852 853 854 855 856 857 858 859 860 861 861 862 863 863 864
768 775 767 756 754 753 753 751 752 755 754 758 759 763 765 756 760 764 757 755 753 769 790 789 793 797 791 792 793 794 796 795 794 794 797 799 800 801 800 799 798 797 795 794 796 798 800 803 805 809 811 813 816 818 821 824 826 828 830 832 834 836 838 840 842 843 845 847 848 850 851 852 854 855 856 857 858 859 859 861 862 862 863 864 865 865
777 770 757 749 748 750 754 751 752 755 754 757 759 765 766 753 764 780 768 758 754 761 781 787 793 796 791 793 794 794 795 794 794 793 794 797 799 800 799 798 798 798 798 796 796 797 799 802 805 808 810 812 815 818 821 823 826 828 830 832 833 836 838 840 842 843 845 846 848 850 851 852 854 855 856 857 859 860 860 861 862 863 864 864 865 866
767 755 745 746 747 749 754 752 753 759 759 757 754 759 761 748 754 769 764 761 759 760 769 782 802 804 795 799 801 799 801 799 797 796 797 797 797 798 798 798 797 797 798 797 796 796 797 801 804 807 810 812 814 817 820 822 825 827 829 831 833 835 837 839 841 843 844 846 847 849 850 852 854 855 856 857 859 860 861 862 862 863 864 865 865 866
756 742 737 746 749 747 753 754 751 757 762 759 750 747 748 745 750 757 755 764 779 783 771 776 813 821 798 797 804 806 809 804 800 800 799 799 797 798 799 799 798 797 797 796 795 795 797 799 803 806 809 811 814 816 819 821 824 826 828 830 833 834 837 839 840 842 844 845 846 847 848 850 852 854 855 856 858 859 861 862 862 863 864 865 866 866
748 737 734 744 748 748 752 753 747 747 760 763 747 736 738 740 747 753 751 763 784 789 770 763 797 821 808 798 798 803 810 808 803 802 800 798 799 798 798 798 798 798 797 796 796 794 795 799 801 805 808 810 813 815 818 821 823 825 827 829 832 834 836 838 840 841 843 844 845 846 847 849 851 853 854 856 857 859 860 861 862 863 864 865 866 866
742 740 739 740 744 750 754 754 744 739 756 761 739 730 737 739 742 745 745 756 763 767 770 761 774 809 818 803 792 795 807 812 808 804 801 798 798 798 796 796 797 798 797 798 798 795 794 797 800 803 807 809 812 814 817 820 822 824 826 829 831 833 835 837 839 841 842 843 844 846 847 849 851 852 854 855 857 858 860 861 862 863 864 865 865 866
734 741 743 739 744 750 750 747 738 736 751 750 731 727 733 735 739 737 742 752 749 764 790 778 770 804 820 799 789 793 802 811 808 802 799 796 795 796 795 795 795 795 796 796 796 795 795 796 798 801 805 808 811 814 816 819 821 823 825 828 831 833 835 836 838 840 841 843 844 846 847 849 851 852 854 855 856 858 859 860 862 863 864 864 865 866
731 732 731 734 743 745 740 734 729 735 744 735 726 729 730 732 735 734 743 751 750 770 794 781 771 801 819 801 793 798 799 802 800 795 794 792 792 793 793 793 794 794 795 794 793 794 796 796 797 799 803 807 810 812 815 818 820 822 824 827 830 832 834 836 838 840 841 843 844 846 847 848 850 852 853 855 856 857 859 860 861 862 863 864 865 865
728 721 721 727 733 731 728 727 724 728 732 727 729 736 738 738 736 738 741 745 765 782 778 766 762 784 811 807 793 792 788 785 789 791 791 790 790 791 790 791 792 793 793 793 793 794 795 797 798 799 801 805 809 811 814 817 818 821 823 826 829 831 833 835 837 839 840 842 844 845 847 849 850 851 853 854 855 857 858 859 860 862 863 864 864 865
731 729 727 723 720 719 725 729 727 724 725 730 737 744 753 753 748 754 752 753 784 794 769 754 755 773 802 803 787 782 776 774 781 785 786 788 790 788 787 788 789 790 792 792 793 793 794 797 799 799 800 803 806 809 812 815 817 819 822 825 828 830 833 834 836 838 840 842 844 845 847 849 850 851 852 853 855 856 857 858 860 861 862 863 864 865
738 733 727 720 716 716 731 742 740 734 732 738 743 750 768 775 773 781 778 777 791 786 763 750 756 782 797 785 775 775 771 771 774 775 778 781 784 784 783 785 786 787 790 791 793 794 795 797 799 800 801 803 805 807 810 813 815 818 821 824 826 829 832 833 835 837 839 841 843 845 846 848 850 851 852 853 854 855 856 858 859 861 862 863 864 865
749 737 723 725 725 718 731 749 755 750 742 745 749 756 774 785 794 802 793 790 792 779 760 745 758 795 800 777 770 770 767 767 767 769 773 774 777 779 779 781 784 785 787 790 791 793 794 795 798 800 802 806 808 806 808 811 814 817 819 822 825 828 831 833 834 836 839 840 842 844 845 847 849 851 852 853 854 855 856 857 859 860 861 862 863 864
761 756 734 732 735 726 731 741 745 745 743 743 740 746 763 769 784 798 793 793 795 781 763 752 771 805 803 781 768 762 762 763 764 766 768 771 773 775 777 779 782 784 785 788 789 791 792 793 797 800 801 804 806 806 807 808 811 814 817 820 823 826 830 832 834 836 838 840 841 843 845 846 849 850 852 853 854 855 856 857 858 859 860 862 863 863
759 757 732 724 726 724 731 730 727 739 750 743 732 743 758 751 755 774 775 775 777 778 773 769 783 794 786 778 770 765 767 763 764 768 768 773 773 774 779 780 781 784 785 787 788 790 791 791 795 798 799 801 802 805 807 806 808 811 814 818 821 824 828 831 833 835 837 839 841 843 844 846 848 850 851 853 854 855 856 857 858 859 860 861 862 863
763 757 734 728 728 721 726 726 721 738 754 747 742 750 747 731 738 762 771 761 761 781 790 787 796 796 786 787 784 781 781 771 770 774 773 776 776 776 781 780 781 783 783 785 786 788 790 791 795 798 799 800 801 804 808 807 807 809 811 815 819 822 826 829 831 834 836 839 840 842 844 845 847 849 851 852 853 855 856 857 858 858 859 860 861 862
764 766 743 735 741 726 715 721 721 724 736 748 754 746 733 731 737 752 773 776 773 789 796 792 800 803 801 803 795 789 789 781 777 777 777 779 779 781 783 782 783 783 782 784 785 786 789 791 794 796 798 802 803 805 808 809 809 808 809 812 815 819 822 825 828 831 834 836 838 841 842 844 846 847 849 851 853 854 855 856 857 858 859 859 860 861
758 772 754 734 741 729 710 724 736 727 722 734 739 730 735 756 759 755 771 787 788 794 804 808 806 803 804 804 796 791 790 785 781 780 780 781 782 784 786 785 786 785 785 786 786 787 789 790 792 794 798 802 803 805 807 809 810 808 809 811 812 815 818 821 825 827 831 833 836 838 840 842 844 846 848 849 851 853 854 855 856 857 858 858 859 860
754 773 769 740 732 728 720 733 750 746 731 727 729 729 736 749 757 757 759 770 780 788 808 828 828 818 812 803 793 788 784 782 784 785 785 785 785 786 787 789 789 789 788 788 788 788 788 790 791 791 795 798 800 802 803 804 806 805 806 808 810 811 814 817 821 824 828 830 833 836 838 840 842 844 846 847 849 851 852 854 855 855 857 857 858 859
755 768 775 754 736 737 740 741 746 748 743 740 743 747 746 742 745 753 753 754 762 778 802 827 833 825 811 802 797 790 781 778 782 787 789 788 789 789 789 790 790 790 790 788 788 788 788 791 792 790 792 796 799 801 800 800 802 803 805 807 808 809 812 815 819 822 825 828 831 834 835 838 840 842 844 845 847 848 849 851 853 854 855 856 857 857
766 770 775 769 759 754 749 736 731 735 738 742 745 747 750 748 750 765 772 756 746 762 787 809 827 824 803 795 797 792 785 781 780 785 789 790 791 792 791 791 791 791 791 791 790 789 789 791 792 790 792 797 802 803 801 802 804 806 809 811 813 815 817 819 820 822 824 826 829 832 834 836 838 840 842 843 845 846 847 849 850 851 853 853 854 855
766 770 773 774 767 759 749 734 727 728 729 734 738 737 742 746 750 769 782 768 755 765 774 789 817 822 801 792 794 791 787 784 783 785 788 791 792 793 794 794 793 793 793 793 793 792 792 791 791 792 793 797 801 802 802 803 805 808 809 811 814 818 821 822 822 822 823 824 827 829 832 834 836 838 840 842 843 844 845 846 847 849 850 851 852 853
763 769 775 779 768 755 745 732 725 725 730 739 740 734 738 743 744 753 762 761 770 782 781 794 821 823 806 797 796 794 789 785 786 788 789 793 794 795 797 797 797 797 796 796 797 796 796 794 793 794 794 796 798 800 801 802 804 806 806 806 810 814 819 821 822 823 822 823 825 828 830 832 834 836 838 840 842 842 843 844 845 846 847 848 849 850
774 776 780 790 791 780 765 752 744 740 739 746 745 737 737 739 739 745 750 757 775 784 782 800 823 821 807 801 799 798 793 787 788 790 792 795 796 796 799 800 801 801 800 800 800 800 799 798 797 797 797 798 798 799 800 801 803 805 807 810 811 813 816 819 821 822 822 823 825 827 829 831 833 835 835 838 840 841 841 842 842 843 844 845 847 848
777 780 781 794 808 809 800 788 778 767 754 750 748 743 740 741 743 749 759 773 787 787 782 796 814 814 807 807 806 802 796 791 791 792 794 796 798 799 800 802 803 803 803 803 803 802 802 802 801 800 800 801 801 800 801 802 803 806 809 812 811 812 815 817 818 820 821 822 822 824 827 829 833 836 834 834 836 837 838 839 839 840 841 843 844 846
774 777 777 785 795 799 795 784 772 766 763 759 754 748 745 746 747 750 765 782 786 786 790 793 799 808 812 812 811 806 800 796 794 794 796 797 799 802 803 804 805 805 805 805 804 804 804 803 803 802 803 803 803 803 804 804 805 807 809 810 809 811 813 815 817 818 820 822 822 823 825 827 834 838 834 830 832 833 834 835 835 836 838 839 841 843
779 783 777 777 781 778 774 768 760 759 763 761 759 756 751 749 748 751 765 775 775 788 804 796 789 803 812 808 808 808 805 800 795 796 799 799 800 803 804 806 807 806 806 805 805 806 806 806 806 804 804 804 804 805 805 806 808 808 809 809 810 811 812 813 816 817 820 822 822 823 824 825 832 837 835 830 829 831 832 832 833 833 834 835 836 838
784 789 779 775 776 770 765 763 759 759 762 760 759 759 753 750 750 752 757 761 766 784 798 792 791 802 804 800 800 801 800 796 794 795 797 798 801 804 805 807 807 807 807 807 807 808 808 809 808 807 807 806 806 806 806 807 809 809 810 810 811 812 813 813 815 816 818 819 820 821 821 821 825 832 833 830 828 829 830 830 831 832 833 833 833 834
783 787 779 777 778 771 766 765 760 760 764 762 760 758 754 752 752 752 755 757 764 777 782 786 798 805 804 801 796 791 789 789 789 792 795 799 803 805 808 810 809 809 809 808 809 809 809 810 810 810 810 809 809 809 809 809 810 810 811 811 811 812 812 813 814 815 816 817 818 818 818 819 823 827 829 827 826 827 827 828 829 830 831 832 833 833
782 786 777 776 783 781 772 766 762 763 766 766 763 760 757 756 756 757 759 762 771 782 784 789 804 810 806 803 795 787 787 789 791 795 798 801 804 806 810 813 813 812 811 810 810 810 811 811 812 812 812 812 812 811 811 811 811 811 812 811 811 812 812 813 814 814 815 816 817 818 819 821 824 825 825 825 825 825 825 826 827 828 829 829 830 832
783 787 779 778 793 792 774 766 765 763 765 769 769 767 762 762 763 761 760 763 773 786 792 798 807 809 802 798 794 790 789 792 797 800 801 803 805 808 813 816 816 816 815 813 812 812 813 814 814 814 814 814 814 813 813 813 813 813 813 813 813 813 814 814 813 815 817 818 819 820 821 822 823 823 823 822 822 823 823 824 825 825 826 825 826 829
783 789 789 789 798 793 777 771 766 767 779 785 776 770 766 762 762 762 761 762 765 775 789 798 802 799 795 794 795 795 795 798 801 802 804 806 807 810 814 817 818 819 817 817 815 814 814 815 816 816 816 816 816 815 815 815 815 815 815 815 816 815 815 816 816 818 819 819 820 820 820 821 822 821 821 819 819 820 821 822 823 823 823 822 823 825
783 789 792 793 799 797 784 774 771 783 801 795 772 765 765 761 762 768 770 767 765 769 778 786 791 793 793 794 797 798 798 800 802 802 804 806 808 811 815 817 820 820 820 819 818 817 816 816 817 818 818 818 818 818 817 817 817 817 817 817 817 817 817 818 818 819 820 819 820 819 820 821 820 820 819 817 817 817 818 820 821 820 820 820 821 822
789 791 793 793 797 798 789 785 795 806 802 781 765 763 763 761 762 768 772 771 769 772 777 784 793 797 796 797 799 800 800 799 801 803 805 807 809 811 815 818 820 821 822 822 821 820 819 818 818 819 819 820 820 820 820 819 819 819 819 819 819 819 819 819 819 820 820 820 820 820 820 820 819 818 817 816 815 815 815 816 817 817 817 817 818 820
792 796 797 794 795 798 798 800 809 806 785 769 769 768 765 767 767 772 781 781 775 777 784 789 795 797 798 800 801 802 802 801 803 807 808 809 810 811 815 818 819 821 822 823 823 822 821 820 820 820 820 821 822 822 822 821 821 821 821 821 821 821 820 820 820 820 821 820 820 820 820 819 818 817 816 815 815 815 814 814 813 814 815 815 817 819
789 795 801 801 796 797 803 803 800 796 789 782 781 775 772 776 775 777 788 789 778 778 786 791 795 797 799 801 803 804 804 806 812 814 811 811 813 813 815 817 819 821 822 823 824 824 823 823 822 822 822 822 823 823 823 823 823 822 823 823 823 823 823 822 822 822 822 822 821 821 820 819 818 817 816 815 814 814 814 814 813 813 814 815 816 818
788 793 800 806 802 797 803 807 804 807 808 798 786 778 772 774 773 772 784 792 784 779 784 792 797 798 799 801 804 804 806 814 822 821 814 813 814 815 817 819 820 822 823 824 826 825 825 825 824 824 824 824 824 825 824 825 825 824 824 824 824 824 824 823 823 824 823 823 822 822 821 820 819 818 817 816 815 815 815 814 814 814 815 815 816 816
789 789 793 805 808 803 807 811 811 815 812 797 785 778 773 774 771 772 790 804 793 781 782 787 792 795 798 802 803 803 811 823 828 822 815 814 816 817 820 821 822 824 825 826 827 827 827 826 826 826 825 825 825 826 825 826 826 826 825 825 825 825 824 824 824 823 823 823 823 822 821 820 819 818 818 817 817 816 816 815 815 815 815 815 815 815
795 795 798 806 810 808 808 810 810 812 805 791 783 781 778 776 773 786 812 818 798 787 787 787 790 794 797 800 802 806 815 823 823 818 814 815 818 820 822 824 825 826 827 828 828 828 828 828 828 827 827 827 827 827 827 827 827 827 827 826 826 826 825 825 824 823 823 823 822 822 821 821 820 819 818 818 817 816 816 816 815 815 814 814 814 814
800 799 802 806 807 805 807 809 810 808 797 787 785 784 780 779 786 805 821 812 795 793 793 789 792 796 796 798 804 809 813 814 814 815 815 816 820 823 824 826 827 828 829 830 830 830 830 831 830 829 829 829 829 828 828 828 828 828 828 827 827 827 827 827 826 824 824 823 822 822 821 821 820 819 818 818 817 816 816 815 815 814 814 814 814 814
803 801 802 804 805 803 802 805 812 810 795 784 786 784 781 791 806 813 808 798 794 796 794 792 796 796 796 800 804 808 811 811 813 816 818 820 823 825 827 828 829 830 831 832 832 832 833 833 832 832 831 831 830 830 829 829 829 829 829 828 828 828 827 827 826 825 824 823 823 822 821 821 820 819 819 818 817 817 816 815 815 814 814 814 814 813
799 803 804 801 799 800 801 806 817 816 797 783 787 790 791 800 809 805 797 795 795 794 794 796 798 797 799 802 803 806 810 811 814 817 819 822 825 827 829 831 832 833 833 834 835 835 835 835 835 834 833 832 832 831 831 830 830 829 829 829 828 828 828 827 826 825 825 824 823 822 821 820 820 819 818 818 817 816 815 815 814 814 814 813 813 813
794 800 806 799 794 800 809 810 809 805 793 785 791 797 798 797 797 795 796 797 796 794 796 798 799 799 800 802 804 807 809 811 814 817 819 823 825 827 830 832 833 835 835 836 837 837 837 838 837 836 835 834 833 833 832 831 830 829 829 829 829 828 828 826 826 825 824 824 823 822 821 820 819 819 817 816 816 815 814 814 814 813 813 813 812 812
793 793 800 800 794 796 803 802 796 792 790 789 791 794 795 794 792 793 795 797 797 797 797 799 801 801 800 802 805 807 809 812 814 816 819 822 824 827 829 831 833 835 836 837 839 839 839 839 838 837 837 835 834 834 833 832 831 830 829 829 828 828 827 826 826 825 824 823 822 822 821 820 819 818 817 815 815 814 813 813 813 812 813 812 811 811
787 785 791 796 793 790 791 791 789 789 790 790 791 792 792 793 793 793 795 797 798 799 799 801 803 802 801 802 804 807 810 812 815 817 820 822 824 826 829 831 833 835 837 838 839 839 840 840 839 839 838 837 836 835 834 833 832 831 830 829 828 828 827 826 826 825 824 824 822 821 820 819 818 817 816 815 815 814 813 813 812 812 812 811 810 810
785 786 790 792 794 797 797 793 788 787 789 789 791 792 792 792 793 793 796 798 799 800 801 802 803 803 804 804 805 808 811 812 815 818 819 821 824 826 828 830 833 834 836 838 839 839 840 839 839 839 838 837 837 836 835 834 833 832 831 830 829 828 827 827 826 826 825 824 823 821 820 819 818 817 816 815 814 814 813 812 812 811 811 810 810 809
791 791 793 795 795 796 797 794 788 786 786 787 790 792 792 793 794 794 796 798 799 801 803 803 804 805 805 806 808 810 811 812 815 818 819 821 824 826 827 830 831 833 835 837 838 838 839 839 839 838 838 837 836 835 835 834 833 832 831 830 829 829 828 827 826 825 825 823 822 821 820 819 818 816 815 815 814 813 812 812 811 811 811 811 810 809
794 796 798 799 799 796 795 794 792 791 790 789 791 792 792 792 794 795 796 798 799 801 803 804 805 806 807 808 809 810 812 814 815 817 819 821 823 825 827 829 830 832 834 835 836 838 838 838 838 837 836 836 835 834 834 833 833 832 831 830 829 828 828 827 826 825 825 823 822 820 819 818 817 816 815 814 813 812 811 811 811 811 810 809 809 808
797 801 800 801 805 804 802 800 798 799 800 797 793 793 792 792 793 795 797 797 798 800 802 804 806 807 808 809 810 811 813 814 815 817 819 820 822 824 826 827 829 831 833 834 835 836 837 837 837 836 835 835 834 834 833 833 832 831 830 830 829 828 827 827 826 825 825 824 822 821 819 818 817 815 814 813 812 811 811 810 810 810 809 808 808 807
799 802 801 803 808 808 804 801 799 800 802 799 795 794 793 793 794 796 796 797 797 798 800 803 805 806 808 809 809 810 812 813 815 817 818 820 822 824 825 827 828 830 831 832 834 835 835 835 835 835 834 834 833 833 833 832 831 831 830 829 828 827 827 826 825 824 824 823 822 821 820 818 817 815 814 813 812 811 810 809 809 809 809 808 807 805